Flag for Canada Weather past 2 weeks in Richmond Hill, Ontario, Canada

Now
48 °F

More clouds than sun.


Feels Like: 46 °F
Forecast: 36 / 52 °F
Wind: 5 mph from Northwest

Location: Toronto Buttonville


UV Index: 3 (Moderate)

Visibility: 8 mi


Pressure: 30.26 "Hg

Humidity: 94%

Dew point: 46 °F

Location of Richmond HillLocation

Historic Weather in Richmond Hill

°F

Richmond Hill temperature yesterday

Maximum temperature yesterday: 46 °F (at 5:00 PM)
Minimum temperature yesterday: 28 °F (at 1:00 AM)
Average temperature yesterday: 38 °F

Past Weeks' High & Low Weather Summary

 TemperatureHumidityPressure
High70 °F (Apr 13, 5:00 PM)100% (Apr 4, 2:00 PM)30.58 "Hg (Apr 4, 2:00 PM)
Low19 °F (Apr 16, 5:00 AM)25% (Apr 11, 2:00 PM)29.33 "Hg (Apr 8, 6:00 AM)
Average42 °F66%29.96 "Hg
* Reported Apr 3 2:00 PM — Apr 18 2:00 PM, Richmond Hill, Weather by CustomWeather, © 2014

Note: Actual official high and low records may vary slightly from our data, if they occured in-between our weather recording intervals... More about our weather records

Advertising

Historic Weather Conditions — Data for Previous 24 hours

 ConditionsComfort  
Time TempWeatherWind HumidityBarometerVisibility
2:00 PM
Apr 18
48 °FLight rain. Overcast.No wind82%30.26 "Hg12 mi
1:00 PM50 °FOvercast.2 mph71%30.26 "Hg12 mi
12:00 PM48 °FOvercast.2 mph62%30.27 "Hg12 mi
11:00 AM50 °FMore clouds than sun.7 mph50%30.28 "Hg15 mi
10:00 AM46 °FOvercast.3 mph62%30.30 "Hg15 mi
9:00 AM43 °FOvercast.3 mph71%30.31 "Hg15 mi
8:00 AM43 °FOvercast.2 mph66%30.32 "Hg15 mi
7:00 AM41 °FOvercast.No wind70%30.30 "Hg15 mi
6:00 AM39 °FOvercast.3 mph75%30.29 "Hg15 mi
5:00 AM39 °FOvercast.No wind75%30.29 "Hg15 mi
4:00 AM37 °FOvercast.No wind75%30.30 "Hg15 mi
3:00 AM39 °FOvercast.No wind70%30.32 "Hg15 mi
2:00 AM39 °FOvercast.No wind65%30.34 "Hg15 mi
1:00 AM37 °FPassing clouds.No wind65%30.36 "Hg15 mi
12:00 AM39 °FPassing clouds.No wind56%30.36 "Hg15 mi
11:00 PM
Apr 17
41 °FPassing clouds.2 mph53%30.36 "Hg15 mi
10:00 PM43 °FPassing clouds.5 mph46%30.38 "Hg15 mi
9:00 PM43 °FPartly sunny.6 mph46%30.39 "Hg15 mi
8:00 PM45 °FPartly sunny.8 mph42%30.40 "Hg15 mi
7:00 PM45 °FScattered clouds.15 mph42%30.41 "Hg15 mi
6:00 PM46 °FScattered clouds.12 mph43%30.43 "Hg15 mi
5:00 PM46 °FScattered clouds.14 mph43%30.44 "Hg15 mi
4:00 PM45 °FScattered clouds.14 mph46%30.46 "Hg15 mi
3:00 PM45 °FScattered clouds.16 mph46%30.47 "Hg15 mi
Weather by CustomWeather, © 2014

See weather overview